Location: Katwijk
(52.2000°N, 4.4170°E)
Time: 21:13:13
(UTC+02:00)

ISS - Visible Passes

Search period start: 30 July 2014 00:00
Search period end: 09 August 2014 00:00
Orbit: 411 x 419 km, 51.6° (Epoch: 30 July)

Date Brightness Start Highest point End Pass type
(mag) Time Alt. Az. Time Alt. Az. Time Alt. Az.
30 Jul -3.4 02:45:37 62° SW 02:46:02 72° S 02:49:24 10° E visible
30 Jul -3.4 04:19:21 10° W 04:22:43 76° S 04:26:05 10° ESE visible
31 Jul -2.2 01:58:28 34° E 01:58:28 34° E 02:00:34 10° E visible
31 Jul -3.4 03:31:20 16° W 03:33:54 82° S 03:37:16 10° E visible
31 Jul -2.8 05:07:16 10° W 05:10:28 42° SSW 05:13:40 10° SE visible
01 Aug -0.7 01:11:24 12° E 01:11:24 12° E 01:11:42 10° E visible
01 Aug -3.4 02:44:16 50° W 02:45:04 83° S 02:48:26 10° E visible
01 Aug -3.2 04:18:24 10° W 04:21:42 55° SSW 04:25:00 10° ESE visible
02 Aug -2.3 01:57:26 37° E 01:57:26 37° E 01:59:35 10° E visible
02 Aug -3.4 03:30:20 16° W 03:32:54 68° SSW 03:36:15 10° ESE visible
02 Aug -2.1 05:06:29 10° W 05:09:16 24° SSW 05:12:03 10° SSE visible
02 Aug -1.0 23:28:11 10° SSW 23:28:31 12° SSW 23:28:31 12° SSW visible
03 Aug -3.4 02:44:17 72° SE 02:44:17 72° SE 02:47:26 10° ESE visible
03 Aug -2.6 04:17:29 10° W 04:20:33 33° SSW 04:23:37 10° SE visible
03 Aug -1.8 22:39:58 10° S 22:42:19 18° SE 22:44:40 10° E visible
04 Aug -3.0 00:15:16 10° WSW 00:18:02 49° SSW 00:18:02 49° SSW visible
04 Aug -1.9 03:33:23 25° SE 03:33:23 25° SE 03:35:01 10° SE visible
04 Aug -1.4 05:06:33 11° WSW 05:07:53 13° SW 05:09:26 10° SSW visible
04 Aug -3.0 23:26:34 10° SW 23:29:45 44° SSE 23:32:13 16° E visible
05 Aug -2.3 01:02:59 10° W 01:05:06 36° W 01:05:06 36° W visible
05 Aug -2.5 22:37:57 10° SW 22:40:59 32° SSE 22:44:01 10° E visible
06 Aug -3.4 00:14:07 10° WSW 00:17:28 77° S 00:18:18 47° E visible
06 Aug -0.7 01:50:48 10° W 01:51:10 13° W 01:51:10 13° W visible
06 Aug -3.4 23:25:17 10° WSW 23:28:36 67° SSE 23:31:13 16° E visible
07 Aug -2.2 01:01:55 10° W 01:04:04 37° W 01:04:04 37° W visible
07 Aug -3.2 22:36:29 10° WSW 22:39:45 54° SSE 22:43:02 10° E visible
08 Aug -3.4 00:13:02 10° W 00:16:23 83° S 00:16:51 63° ESE visible
08 Aug -3.4 23:24:08 10° W 23:27:29 82° S 23:29:34 21° E visible
